Change the Weather History Date:

Monday, December 10, 2012

  Actual Average Record
Temperature  
Mean Temperature 61 °F -  
Max Temperature 73 °F 59 °F 79 °F (2007)
Min Temperature 48 °F 41 °F 25 °F (2010)
Degree Days  
Heating Degree Days 4    
Growing Degree Days 11 (Base 50)    
Moisture  
Dew Point 62 °F    
Average Humidity 86    
Maximum Humidity 100    
Minimum Humidity 73    
Precipitation  
Precipitation 0.70 in - - ()
Sea Level Pressure  
Sea Level Pressure 29.83 in    
Wind  
Wind Speed 9 mph (SSW)    
Max Wind Speed 23 mph    
Max Gust Speed 31 mph    
Visibility 9 miles    
Events Rain , Thunderstorm    
Averages and records for this station are not official NWS values.
T = Trace of Precipitation, MM = Missing Value Source: NWS Daily Summary

Daily Weather History Graph

Daily Weather History Graph

Search for Another Location

Airport or City:

Trip Planner

Search our weather history database for the weather conditions in past years. The results will help you decide how hot, cold, wet, or windy it might be!

Date:

Astronomy

Dec. 10, 2012 Rise Set
Actual Time 6:36 AM CST 4:40 PM CST
Civil Twilight 6:09 AM CST 5:07 PM CST
Nautical Twilight 5:38 AM CST 5:38 PM CST
Astronomical Twilight 5:08 AM CST 6:08 PM CST
Moon 3:25 AM CST (12/10) 2:24 PM CST (12/10)
Length of Visible Light 10h 58m
Length of Day
10h 04m
Waning Crescent, 10% of the Moon is Illuminated
Dec 10
Waning Crescent
Dec 13
New
Dec 19
First Quarter
Dec 28
Full
Jan 4
Last Quarter

Hourly Weather History & Observations

Time (CST) Temp. Dew Point Humidity Pressure Visibility Wind Dir Wind Speed Gust Speed Precip Events Conditions
12:07 AM 66.2 °F 62.6 °F 88% 29.94 in 10.0 mi South 5.8 mph - N/A   Mostly Cloudy
12:55 AM 67.1 °F 63.1 °F 87% 29.94 in 10.0 mi SSW 9.2 mph - N/A   Overcast
1:30 AM 68.0 °F 62.6 °F 83% 29.92 in 10.0 mi South 8.1 mph - N/A   Overcast
1:36 AM 66.2 °F 62.6 °F 88% 29.92 in 10.0 mi South 9.2 mph - N/A   Overcast
1:55 AM 67.3 °F 63.7 °F 88% 29.91 in 10.0 mi South 9.2 mph - N/A   Overcast
2:00 AM 68.0 °F 64.4 °F 88% 29.91 in 10.0 mi South 10.4 mph - N/A   Overcast
2:18 AM 68.0 °F 62.6 °F 83% 29.91 in 10.0 mi South 10.4 mph - N/A   Overcast
2:27 AM 68.0 °F 62.6 °F 83% 29.90 in 10.0 mi South 11.5 mph - N/A   Overcast
2:40 AM 68.0 °F 62.6 °F 83% 29.90 in 10.0 mi South 11.5 mph - N/A   Overcast
2:55 AM 67.1 °F 63.1 °F 87% 29.89 in 10.0 mi South 9.2 mph - N/A   Overcast
3:55 AM 67.1 °F 63.1 °F 87% 29.87 in 10.0 mi South 10.4 mph - N/A   Mostly Cloudy
4:23 AM 68.0 °F 62.6 °F 83% 29.86 in 10.0 mi South 9.2 mph - N/A   Overcast
4:55 AM 67.5 °F 63.1 °F 86% 29.86 in 10.0 mi South 9.2 mph - N/A   Overcast
5:06 AM 68.0 °F 62.6 °F 83% 29.86 in 10.0 mi South 8.1 mph - N/A   Overcast
5:55 AM 67.3 °F 63.0 °F 86% 29.85 in 10.0 mi South 9.2 mph - N/A   Scattered Clouds
6:55 AM 67.3 °F 63.1 °F 87% 29.84 in 10.0 mi South 6.9 mph - N/A   Partly Cloudy
7:18 AM 68.0 °F 62.6 °F 83% 29.85 in 10.0 mi South 6.9 mph - N/A   Mostly Cloudy
7:55 AM 68.2 °F 63.5 °F 85% 29.84 in 10.0 mi South 8.1 mph - N/A   Mostly Cloudy
8:47 AM 69.8 °F 64.4 °F 83% 29.84 in 10.0 mi South 10.4 mph - N/A   Overcast
8:55 AM 69.4 °F 63.9 °F 82% 29.84 in 10.0 mi South 11.5 mph 17.3 mph N/A   Overcast
9:00 AM 69.8 °F 64.4 °F 83% 29.84 in 10.0 mi South 13.8 mph - N/A   Overcast
9:13 AM 69.8 °F 64.4 °F 83% 29.84 in 10.0 mi South 10.4 mph - N/A   Overcast
9:55 AM 70.3 °F 64.4 °F 81% 29.84 in 10.0 mi South 12.7 mph 19.6 mph N/A   Overcast
10:02 AM 69.8 °F 64.4 °F 83% 29.84 in 10.0 mi SSW 10.4 mph 19.6 mph N/A   Overcast
10:18 AM 71.6 °F 64.4 °F 78% 29.83 in 10.0 mi South 12.7 mph - N/A   Mostly Cloudy
10:52 AM 71.6 °F 64.4 °F 78% 29.82 in 10.0 mi SSW 13.8 mph 18.4 mph N/A   Mostly Cloudy
10:55 AM 72.3 °F 64.4 °F 76% 29.82 in 10.0 mi South 10.4 mph 23.0 mph N/A   Mostly Cloudy
11:08 AM 73.4 °F 64.4 °F 73% 29.81 in 10.0 mi SSW 11.5 mph 17.3 mph N/A   Overcast
11:55 AM 72.9 °F 64.6 °F 75% 29.78 in 10.0 mi SSW 12.7 mph - N/A   Overcast
12:12 PM 73.4 °F 64.4 °F 73% 29.76 in 10.0 mi South 10.4 mph - N/A   Mostly Cloudy
12:33 PM 73.4 °F 64.4 °F 73% 29.75 in 10.0 mi SW 8.1 mph - N/A Rain Light Rain
12:43 PM 73.4 °F 64.4 °F 73% 29.75 in 10.0 mi SSW 6.9 mph - N/A   Mostly Cloudy
12:55 PM 73.2 °F 64.4 °F 74% 29.73 in 10.0 mi SSW 5.8 mph - 0.00 in Thunderstorm Overcast
12:59 PM 73.4 °F 64.4 °F 73% 29.73 in 9.0 mi Calm Calm - N/A Rain , Thunderstorm Light Thunderstorms and Rain
1:02 PM 73.4 °F 64.4 °F 73% 29.73 in 8.0 mi Variable 3.5 mph - N/A Rain , Thunderstorm Light Thunderstorms and Rain
1:11 PM 71.6 °F 66.2 °F 83% 29.77 in 0.5 mi West 18.4 mph 28.8 mph N/A Rain , Thunderstorm Light Thunderstorms and Rain
1:13 PM 69.8 °F 66.2 °F 88% 29.78 in 0.5 mi West 23.0 mph 31.1 mph N/A Rain , Thunderstorm Thunderstorms and Rain
1:18 PM 66.2 °F 62.6 °F 88% 29.75 in 5.0 mi WNW 12.7 mph 31.1 mph N/A Rain , Thunderstorm Light Thunderstorms and Rain
1:27 PM 64.4 °F 62.6 °F 94% 29.77 in 4.0 mi SW 8.1 mph - N/A Rain , Thunderstorm Light Thunderstorms and Rain
1:34 PM 64.4 °F 60.8 °F 88% 29.77 in 4.0 mi WSW 9.2 mph 17.3 mph N/A Rain Rain
1:55 PM 64.9 °F 62.4 °F 92% 29.76 in 10.0 mi WSW 5.8 mph - 0.63 in Rain Light Rain
2:41 PM 64.4 °F 62.6 °F 94% 29.76 in 10.0 mi SSW 5.8 mph - N/A   Partly Cloudy
2:53 PM 64.4 °F 64.4 °F 100% 29.77 in 10.0 mi SSW 6.9 mph - N/A   Mostly Cloudy
2:55 PM 65.3 °F 63.5 °F 94% 29.77 in 10.0 mi Variable 5.8 mph - 0.05 in   Mostly Cloudy
3:03 PM 66.2 °F 62.6 °F 88% 29.77 in 10.0 mi SSW 9.2 mph - N/A Rain Light Rain
3:22 PM 64.4 °F 62.6 °F 94% 29.77 in 10.0 mi SSW 8.1 mph - N/A Rain Light Rain
3:55 PM 64.4 °F 62.6 °F 94% 29.76 in 10.0 mi SSW 4.6 mph - 0.02 in Rain Light Rain
4:18 PM 64.4 °F 62.6 °F 94% 29.76 in 10.0 mi Calm Calm - N/A   Overcast
4:48 PM 64.4 °F 62.6 °F 94% 29.77 in 10.0 mi SW 6.9 mph - N/A   Light Drizzle
4:55 PM 64.2 °F 63.3 °F 97% 29.77 in 10.0 mi SW 5.8 mph - 0.00 in   Light Drizzle
4:59 PM 64.4 °F 62.6 °F 94% 29.78 in 10.0 mi SW 4.6 mph - N/A   Overcast
5:19 PM 64.4 °F 62.6 °F 94% 29.78 in 10.0 mi SW 4.6 mph - N/A   Overcast
5:50 PM 64.4 °F 62.6 °F 94% 29.78 in 10.0 mi SW 3.5 mph - N/A   Overcast
5:55 PM 64.4 °F 63.1 °F 96% 29.78 in 10.0 mi Calm Calm - 0.00 in   Overcast
6:00 PM 64.4 °F 62.6 °F 94% 29.78 in 10.0 mi WNW 6.9 mph - N/A   Overcast
6:13 PM 64.4 °F 62.6 °F 94% 29.79 in 10.0 mi NW 11.5 mph 19.6 mph N/A   Overcast
6:55 PM 57.6 °F 55.6 °F 93% 29.84 in 10.0 mi WNW 12.7 mph - N/A   Overcast
7:53 PM 53.6 °F 51.8 °F 94% 29.88 in 10.0 mi WNW 11.5 mph - N/A   Overcast
7:55 PM 54.3 °F 52.7 °F 94% 29.88 in 10.0 mi WNW 11.5 mph - N/A   Overcast
8:55 PM 51.8 °F 48.7 °F 89% 29.91 in 10.0 mi NW 8.1 mph - N/A   Overcast
9:55 PM 50.7 °F 47.5 °F 89% 29.93 in 10.0 mi WNW 8.1 mph - N/A   Overcast
10:55 PM 49.6 °F 45.3 °F 85% 29.94 in 10.0 mi NW 11.5 mph - N/A   Overcast
11:55 PM 48.9 °F 44.4 °F 84% 29.94 in 10.0 mi NW 10.4 mph - N/A   Overcast